Flag for U.S.A. Weather past 2 weeks in Scranton, Pennsylvania, U.S.A.

Now
66 °F

Clear.


Feels Like: 66 °F
Forecast: 62 / 80 °F
Wind: 6 mph from North

Location: Barre - Scranton - Wilkes-Barre / Scranton International Airport

Current Time: Sep 20, 2014 at 10:28:18 PM

Latest Report: Sep 20, 2014 at 9:54 PM


Visibility: 10 mi

Pressure: 30.03 "Hg

Humidity: 73%

Dew point: 57 °F

Location of ScrantonLocation

Historic Weather in Scranton — Graph

°F

Scranton temperature yesterday

Maximum temperature yesterday: 67 °F (at 1:54 PM)
Minimum temperature yesterday: 44 °F (at 6:54 AM)
Average temperature yesterday: 56 °F

Past Weeks' High & Low Weather Summary

 TemperatureHumidityPressure
High87 °F (Sep 6, 2:54 PM)93% (Sep 6, 9:54 PM)30.32 "Hg (Sep 6, 9:54 PM)
Low44 °F (Sep 15, 6:54 AM)31% (Sep 18, 4:54 PM)29.81 "Hg (Sep 11, 12:54 PM)
Average61 °F71%30.11 "Hg
* Reported Sep 5 8:54 PM — Sep 20 8:54 PM, Scranton, Weather by CustomWeather, © 2014

Note: Actual official high and low records may vary slightly from our data, if they occured in-between our weather recording intervals... More about our weather records

Advertising

Scranton weather history for previous 24 hours

 ConditionsComfort  
Time TempWeatherWind HumidityBarometerVisibility
8:54 PM
Sep 20
67 °FClear.No wind66%30.03 "Hg10 mi
7:54 PM68 °FPassing clouds.3 mph65%30.03 "Hg10 mi
6:54 PM70 °FSunny.3 mph61%30.04 "Hg10 mi
5:54 PM72 °FPartly sunny.9 mph57%30.06 "Hg10 mi
4:54 PM72 °FOvercast.12 mph55%30.07 "Hg10 mi
3:54 PM74 °FOvercast.9 mph53%30.08 "Hg10 mi
2:54 PM73 °FPartly sunny.10 mph57%30.11 "Hg10 mi
1:54 PM71 °FCloudy.10 mph59%30.14 "Hg10 mi
8:54 AM62 °FMostly cloudy.6 mph78%30.24 "Hg8 mi
7:54 AM61 °FMostly cloudy.5 mph78%30.24 "Hg8 mi
6:54 AM59 °FOvercast.5 mph84%30.24 "Hg8 mi
5:54 AM58 °FOvercast.5 mph81%30.25 "Hg8 mi
4:54 AM58 °FOvercast.6 mph81%30.26 "Hg8 mi
4:02 AM58 °FOvercast.6 mph81%30.27 "Hg8 mi
3:54 AM58 °FOvercast.3 mph81%30.26 "Hg8 mi
2:54 AM57 °FOvercast.3 mph81%30.27 "Hg8 mi
1:54 AM57 °FOvercast.No wind78%30.28 "Hg9 mi
12:54 AM57 °FOvercast.3 mph74%30.29 "Hg10 mi
11:54 PM
Sep 19
56 °FClear.5 mph77%30.27 "Hg10 mi
10:54 PM56 °FOvercast.5 mph75%30.30 "Hg10 mi
Weather by CustomWeather, © 2014

See weather overviewHow to use our weather pages